Weather History for Oxford, NC

Change the Weather History Date:

Wednesday, January 15, 2014

  Actual Average (KTDF) Record (KTDF)
Temperature  
Mean Temperature 45 °F -  
Max Temperature 57 °F 46 °F 73 °F (1960)
Min Temperature 33 °F 25 °F 8 °F (1988)
Degree Days  
Heating Degree Days 20    
Moisture  
Dew Point 35 °F    
Average Humidity 78    
Maximum Humidity 99    
Minimum Humidity 40    
Precipitation  
Precipitation 0.03 in - - ()
Sea Level Pressure  
Sea Level Pressure 29.91 in    
Wind  
Wind Speed 5 mph (SW)    
Max Wind Speed 13 mph    
Max Gust Speed 17 mph    
Visibility 6 miles    
Events Fog , Rain    
Averages and records for this station are not official NWS values.
T = Trace of Precipitation, MM = Missing Value Source: NWS Daily Summary

Daily Weather History Graph

Daily Weather History Graph

Search for Another Location

Airport:

Trip Planner

Search our weather history database for the weather conditions in past years. The results will help you decide how hot, cold, wet, or windy it might be!

Date:

Astronomy

Jan. 15, 2014 Rise Set
Actual Time 7:24 AM EST 5:22 PM EST
Civil Twilight 6:56 AM EST 5:50 PM EST
Nautical Twilight 6:25 AM EST 6:22 PM EST
Astronomical Twilight 5:54 AM EST 6:53 PM EST
Moon 5:16 PM EST (1/15) 6:41 AM EST (1/15)
Length of Visible Light 10h 53m
Length of Day
9h 57m
Full, 100% of the Moon is Illuminated
Jan 15
Full
Jan 15
Full
Jan 24
Last Quarter
Jan 30
New
Feb 6
First Quarter

Hourly Weather History & Observations

Time (EST) Temp. Windchill Dew Point Humidity Pressure Visibility Wind Dir Wind Speed Gust Speed Precip Events Conditions
12:15 AM 38.3 °F - 37.4 °F 97% 29.95 in 0.8 mi Calm Calm - N/A   Mist
12:35 AM 37.6 °F 34.0 °F 36.9 °F 97% 29.96 in 0.5 mi SSW 4.6 mph - N/A Fog Fog
12:55 AM 37.9 °F 34.4 °F 37.2 °F 97% 29.95 in 0.8 mi SSW 4.6 mph - N/A   Mist
1:15 AM 36.5 °F 32.7 °F 35.6 °F 97% 29.95 in 0.5 mi SSW 4.6 mph - N/A Fog Fog
1:35 AM 34.0 °F 31.0 °F 33.4 °F 98% 29.96 in 0.5 mi SSW 3.5 mph - N/A Fog Fog
1:55 AM 35.1 °F 32.2 °F 34.3 °F 97% 29.96 in 0.2 mi South 3.5 mph - N/A Fog Fog
2:15 AM 33.8 °F 29.6 °F 33.1 °F 97% 29.96 in 0.2 mi SSE 4.6 mph - N/A Fog Fog
2:35 AM 34.9 °F 32.0 °F 34.2 °F 97% 29.95 in 0.2 mi South 3.5 mph - N/A Fog Fog
2:55 AM 35.6 °F 30.7 °F 34.9 °F 97% 29.95 in 0.2 mi South 5.8 mph - N/A Fog Fog
3:15 AM 36.9 °F 33.1 °F 36.1 °F 97% 29.95 in 0.2 mi SSW 4.6 mph - N/A Fog Fog
3:35 AM 36.0 °F 32.1 °F 35.6 °F 99% 29.95 in 0.2 mi SSW 4.6 mph - N/A Fog Fog
3:55 AM 36.0 °F 32.1 °F 35.2 °F 97% 29.94 in 0.2 mi SSW 4.6 mph - N/A Fog Fog
4:15 AM 35.1 °F 31.0 °F 34.3 °F 97% 29.94 in 0.2 mi SSW 4.6 mph - N/A Fog Fog
4:35 AM 34.9 °F 30.8 °F 34.2 °F 97% 29.94 in 0.2 mi SSW 4.6 mph - N/A Fog Fog
4:55 AM 34.7 °F 29.6 °F 34.2 °F 98% 29.94 in 0.2 mi SSW 5.8 mph - N/A Fog Fog
5:15 AM 34.5 °F 30.4 °F 33.8 °F 97% 29.94 in 0.5 mi SSW 4.6 mph - N/A Fog Fog
5:35 AM 34.3 °F 30.2 °F 33.8 °F 98% 29.94 in 0.2 mi SSW 4.6 mph - N/A Fog Fog
5:55 AM 34.3 °F 30.2 °F 33.8 °F 98% 29.94 in 0.2 mi South 4.6 mph - N/A Fog Fog
6:15 AM 34.7 °F 29.6 °F 34.0 °F 97% 29.94 in 0.5 mi South 5.8 mph - N/A Fog Fog
6:35 AM 35.6 °F 31.7 °F 34.9 °F 97% 29.94 in 0.2 mi South 4.6 mph - N/A Fog Fog
6:55 AM 36.5 °F 31.8 °F 35.6 °F 97% 29.95 in 0.2 mi SSW 5.8 mph - 0.01 in Fog Fog
7:15 AM 35.8 °F 33.0 °F 35.2 °F 98% 29.95 in 0.2 mi South 3.5 mph - N/A Fog Fog
7:35 AM 35.6 °F 32.8 °F 34.9 °F 97% 29.95 in 0.2 mi SW 3.5 mph - N/A Fog Fog
7:55 AM 35.8 °F - 35.2 °F 98% 29.95 in 0.2 mi Calm Calm - N/A Fog Fog
8:15 AM 36.3 °F - 35.6 °F 97% 29.96 in 0.2 mi Calm Calm - N/A Fog Fog
8:35 AM 36.5 °F - 35.8 °F 97% 29.97 in 0.2 mi Calm Calm - N/A Fog Fog
8:55 AM 36.5 °F 33.9 °F 35.8 °F 97% 29.97 in 0.2 mi South 3.5 mph - N/A Fog Fog
9:15 AM 36.9 °F 34.3 °F 36.1 °F 97% 29.97 in 0.2 mi South 3.5 mph - N/A Fog Fog
9:35 AM 38.5 °F 35.0 °F 37.8 °F 97% 29.97 in 0.2 mi South 4.6 mph - N/A Fog Fog
9:55 AM 40.1 °F 36.1 °F 39.2 °F 97% 29.97 in 0.2 mi SSW 5.8 mph - N/A Fog Fog
10:15 AM 41.5 °F 38.6 °F 40.6 °F 97% 29.97 in 3.0 mi South 4.6 mph - N/A   Overcast
10:35 AM 44.4 °F 40.5 °F 43.5 °F 97% 29.96 in 10.0 mi South 6.9 mph - N/A   Scattered Clouds
10:55 AM 44.6 °F 40.2 °F 43.7 °F 97% 29.96 in 10.0 mi SSW 8.1 mph - N/A   Scattered Clouds
11:15 AM 46.6 °F - 45.7 °F 97% 29.94 in 10.0 mi South 6.9 mph - N/A   Mostly Cloudy
11:35 AM 47.8 °F - 46.9 °F 97% 29.93 in 10.0 mi SSW 9.2 mph - N/A   Scattered Clouds
11:55 AM 48.6 °F - 47.3 °F 95% 29.91 in 10.0 mi SSW 10.4 mph - N/A   Clear
12:15 PM 51.8 °F - 43.7 °F 74% 29.89 in 10.0 mi SSW 11.5 mph 17.3 mph N/A   Clear
12:35 PM 53.6 °F - 43.0 °F 67% 29.87 in 10.0 mi South 9.2 mph - N/A   Clear
12:55 PM 54.9 °F - 41.0 °F 60% 29.86 in 10.0 mi South 12.7 mph - N/A   Clear
1:15 PM 55.2 °F - 41.0 °F 59% 29.85 in 10.0 mi SSW 9.2 mph - N/A   Clear
1:35 PM 56.1 °F - 39.9 °F 55% 29.84 in 10.0 mi South 11.5 mph - N/A   Clear
1:55 PM 56.3 °F - 38.7 °F 52% 29.84 in 10.0 mi SW 11.5 mph 16.1 mph N/A   Clear
2:15 PM 56.7 °F - 39.0 °F 52% 29.83 in 10.0 mi South 8.1 mph 11.5 mph N/A   Clear
2:35 PM 57.6 °F - 38.1 °F 48% 29.83 in 10.0 mi SSW 9.2 mph - N/A   Clear
2:55 PM 57.6 °F - 37.2 °F 47% 29.84 in 10.0 mi SSW 11.5 mph - N/A   Clear
3:15 PM 57.2 °F - 35.8 °F 45% 29.82 in 10.0 mi SSW 9.2 mph 17.3 mph N/A   Clear
3:35 PM 57.2 °F - 34.0 °F 42% 29.82 in 10.0 mi SSW 11.5 mph - N/A   Clear
3:55 PM 56.8 °F - 33.1 °F 41% 29.83 in 10.0 mi SSW 10.4 mph - N/A   Clear
4:15 PM 56.3 °F - 32.0 °F 40% 29.83 in 10.0 mi SW 6.9 mph - N/A   Clear
4:35 PM 55.2 °F - 32.0 °F 41% 29.83 in 10.0 mi SW 10.4 mph - N/A   Clear
4:55 PM 53.8 °F - 32.7 °F 45% 29.84 in 10.0 mi WSW 6.9 mph - N/A   Clear
5:15 PM 51.4 °F - 33.6 °F 51% 29.84 in 10.0 mi SW 3.5 mph - 0.01 in   Clear
5:35 PM 50.0 °F - 34.9 °F 56% 29.84 in 10.0 mi Calm Calm - 0.01 in   Clear
5:55 PM 49.5 °F - 34.9 °F 57% 29.84 in 10.0 mi Calm Calm - 0.01 in   Clear
6:15 PM 48.4 °F - 35.1 °F 60% 29.85 in 10.0 mi Calm Calm - N/A   Clear
6:35 PM 45.1 °F - 36.0 °F 70% 29.85 in 10.0 mi Calm Calm - N/A   Scattered Clouds
6:55 PM 46.6 °F - 35.4 °F 65% 29.87 in 10.0 mi NW 9.2 mph 16.1 mph N/A   Scattered Clouds
7:15 PM 45.0 °F 40.1 °F 31.8 °F 60% 29.88 in 10.0 mi NW 9.2 mph - N/A   Clear
7:35 PM 44.1 °F 39.0 °F 30.6 °F 59% 29.89 in 10.0 mi NW 9.2 mph - N/A   Clear
7:55 PM 43.2 °F 39.0 °F 30.6 °F 61% 29.88 in 10.0 mi NW 6.9 mph - N/A   Clear
8:15 PM 42.3 °F 37.9 °F 29.8 °F 61% 29.88 in 10.0 mi NW 6.9 mph - N/A   Clear
8:35 PM 42.3 °F 36.3 °F 29.3 °F 60% 29.90 in 10.0 mi WNW 10.4 mph 17.3 mph N/A   Mostly Cloudy
8:55 PM 41.9 °F 35.9 °F 28.9 °F 60% 29.90 in 10.0 mi NW 10.4 mph 17.3 mph N/A   Overcast
9:15 PM 41.4 °F 35.7 °F 28.8 °F 61% 29.91 in 10.0 mi NW 9.2 mph 16.1 mph N/A   Overcast
9:35 PM 41.0 °F 36.4 °F 28.8 °F 62% 29.91 in 10.0 mi NW 6.9 mph - N/A   Overcast
9:55 PM 40.3 °F 34.9 °F 29.1 °F 64% 29.90 in 10.0 mi NW 8.1 mph 17.3 mph N/A Rain Light Rain
10:15 PM 39.9 °F 33.9 °F 28.9 °F 65% 29.90 in 10.0 mi NW 9.2 mph 16.1 mph N/A   Mostly Cloudy
10:35 PM 38.5 °F 32.1 °F 30.0 °F 72% 29.91 in 10.0 mi NNW 9.2 mph - 0.01 in   Scattered Clouds
10:55 PM 37.4 °F 32.1 °F 30.2 °F 75% 29.91 in 10.0 mi NW 6.9 mph - 0.01 in   Scattered Clouds
11:15 PM 37.2 °F 31.9 °F 30.2 °F 76% 29.91 in 10.0 mi NW 6.9 mph - N/A   Scattered Clouds
11:35 PM 37.2 °F 31.9 °F 30.2 °F 76% 29.91 in 10.0 mi North 6.9 mph - N/A   Mostly Cloudy
11:55 PM 36.9 °F 31.4 °F 30.7 °F 79% 29.92 in 10.0 mi NW 6.9 mph - N/A   Mostly Cloudy